Location: LDNL
(36.4545°S, 141.6685°E)
Time: 19:21:42
(UTC+10:00)

A-11 Canister half - Pass Details

Date: 30 January 2022
Orbit: 1527 x 1682 km, 47.3° (Epoch: 20 May)

Event Time Altitude Azimuth Distance (km) Brightness Sun altitude
Rises 02:45:21 0° 255° (WSW) 4,936 11.7 -34.0°
Reaches altitude 10° 02:48:47 10° 248° (WSW) 3,937 11.1 -33.8°
Maximum altitude 02:58:21 45° 177° (S) 2,134 10.0 -33.1°
Drops below altitude 10° 03:07:39 10° 106° (ESE) 3,826 11.5 -32.4°
Sets 03:10:56 0° 99° (E) 4,787 12.0 -32.2°
